Tracking 28520 objects as of 29-Feb-2024
HD Live streaming from Space Station
objects crossing your sky now

ONEWEB-0573

Track ONEWEB-0573 now!
10-day predictions
ONEWEB-0573 is classified as:


NORAD ID: 55152
Int'l Code: 2023-004N
Perigee: 1,196.1 km
Apogee: 1,197.7 km
Inclination: 87.9 °
Period: 109.2 minutes
Semi major axis: 7567 km
RCS: Unknown
Launch date: January 10, 2023
Source: United Kingdom (UK)
Launch site: AIR FORCE WESTERN TEST RANGE (AFWTR)
Your satellite tracking list
Your tracking list is empty




NASA's NSSDC Master Catalog

Two Line Element Set (TLE):
1 55152U 23004N   24059.76779282  .00000073  00000-0  15276-3 0  9999
2 55152  87.9224 142.6173 0001051 130.8024 229.3200 13.18687190 59063
Source of the keplerian elements: AFSPC